Simultaneous Nadir Overpasses (SNOs) Predictions

Prediction of SNOs between NOAA-19 and METOP-C Satellite Orbit:

Table of predicted SNOs for the next 14.0 days since TLE Epoch: 10/11/2019
Index Date (NOAA-19) Time (NOAA-19) Lat,Lon (NOAA-19) SZA (NOAA-19 ) Date (METOP-C) Time (METOP-C) Lat,Lon (METOP-C) SZA (METOP-C ) Distance(km) Time Diff (sec)
1 10/19/2019 12:15:02 -79.56,-165.64 89.78 10/19/2019 12:16:13 -79.58,-165.58 89.74 2.52 71
2 10/19/2019 13:05:58 79.55, 1.74 90.23 10/19/2019 13:06:53 79.56, 1.61 90.25 2.95 55
3 10/19/2019 13:57:03 -79.57, 168.79 89.76 10/19/2019 13:57:35 -79.57, 168.96 89.74 3.54 32
4 10/19/2019 14:47:59 79.56, -23.84 90.26 10/19/2019 14:48:15 79.55, -23.84 90.26 0.89 16
5 10/19/2019 15:39:03 -79.55, 143.50 89.74 10/19/2019 15:38:57 -79.55, 143.51 89.73 0.63 6
6 10/19/2019 16:29:59 79.54, -49.13 90.28 10/19/2019 16:29:37 79.54, -49.30 90.26 3.53 22
7 10/19/2019 17:21:04 -79.55, 117.93 89.71 10/19/2019 17:20:19 -79.54, 118.05 89.73 2.99 45
8 10/19/2019 18:12:00 79.54, -74.70 90.31 10/19/2019 18:10:59 79.52, -74.76 90.26 2.79 61




NCC Satellite Simultaneous Nadir Overpasses (SNOs) Prediction Service
